[[{"header":{"parameterUnit":"m.s-1","parameterCategory":1,"la1":30.2991,"la2":30.254,"lo1":-89.0895,"lo2":-89.0444,"dy":0.0017,"dx":0.0017,"nx":28,"ny":28,"refTime":"2024-02-03T03:00:00:Z","depth":0,"parameterNumber":2,"parameterNumberName":"U-component_of_WINDS"},"data":[0,0,0,0,0,0,0,0,0,0,0,0,0,0,0,0,0,0,0,0,0,0,0,0,0,0,0,0,0,0,0,0,0,0,0,0,0,0,0,0,0,0,0,0,0,0,0,0,0,0,0,0,0,0,0,0,0,0,5.5752,5.5755,0,5.5979,5.5982,5.5984,5.6004,5.6002,5.5999,5.5997,5.6236,5.6244,5.6252,0,0,0,0,0,0,0,0,0,0,0,0,0,5.5344,5.5351,5.5752,5.5755,5.5758,5.5979,5.5982,5.5985,5.6004,5.6001,5.5998,5.5996,5.6233,5.6243,5.6253,0,0,0,0,0,0,0,0,0,0,0,0,0,5.5541,5.5354,5.5751,5.5794,5.58,5.5978,5.5982,5.5986,5.6005,5.6001,5.5998,5.5994,5.6229,5.6242,5.6255,5.6408,0,0,5.6294,5.63,0,0,0,0,0,0,0,0,5.553,5.5556,5.5785,5.5791,5.5798,5.5959,5.5926,5.6128,5.6006,5.5927,5.5997,5.5992,5.6147,5.6167,5.6217,5.6419,5.643,5.6295,5.6303,5.6309,5.6313,0,0,0,0,0,0,0,5.5516,5.5547,5.5842,5.5788,5.5796,5.5805,5.5828,5.5964,5.6055,5.5934,5.5936,5.5962,5.615,5.6205,5.6223,5.6433,5.6295,5.6307,5.6315,5.632,5.6779,5.6783,0,0,0,0,0,0,5.5494,5.5535,5.5835,5.5849,5.5652,5.5815,5.5842,5.5912,5.6054,5.6072,5.5965,5.5962,5.6185,5.6208,5.6232,5.6425,5.6309,5.6321,5.6328,5.6774,5.678,5.6785,0,0,0,0,0,0,5.5485,5.552,5.5826,5.5693,5.5732,5.5826,5.5904,5.5918,5.5973,5.6077,5.6094,5.6004,5.6183,5.6213,5.6365,5.6433,5.6327,5.6339,5.6769,5.6776,5.6782,5.6809,0,0,0,0,0,0,5.5473,5.5517,5.5574,5.5694,5.5739,5.5953,5.5908,5.5925,5.5994,5.5993,5.6118,5.6135,5.6182,5.6346,5.6378,5.6449,5.6349,5.6764,5.6772,5.678,5.6802,5.6816,5.6827,0,0,0,0,0,5.5458,5.5572,5.5576,5.5612,5.5812,5.5956,5.5983,5.6032,5.5999,5.6059,5.6128,5.6131,5.642,5.6361,5.6398,5.6473,5.676,5.677,5.6779,5.6797,5.6813,5.6827,0,0,0,0,0,0,5.5459,5.5589,5.5595,5.575,5.5842,5.5959,5.6036,5.6047,5.6151,5.6146,5.6205,5.6233,5.6384,5.6444,5.6376,5.6632,5.6587,5.6604,5.6588,5.6604,5.6616,5.6599,5.6359,0,0,0,0,0,5.5477,5.5581,5.569,5.5817,5.5862,5.5941,5.6006,5.6037,5.6135,5.6174,5.6253,5.635,5.6464,5.6537,5.6646,5.6811,5.6841,5.6882,5.6894,5.6903,5.6919,5.7015,5.7036,5.6817,5.6817,5.6817,0,0,5.5516,5.5599,5.5662,5.5819,5.5894,5.6004,5.5974,5.609,5.6173,5.6193,5.6341,5.6403,5.6516,5.6676,5.675,5.673,5.6986,5.6916,5.6923,5.6933,5.7028,5.7048,5.7067,5.6824,5.6823,5.6822,0,0,5.5643,5.5715,5.5831,5.5906,5.602,5.6072,5.61,5.6217,5.6258,5.6408,5.6426,5.6527,5.6719,5.6801,5.6867,5.7029,5.7039,5.7064,5.7128,5.7222,5.7239,5.7254,5.7316,5.7337,5.7078,5.7078,5.7078,0,5.5677,5.584,5.5889,5.6006,5.6077,5.6099,5.6219,5.6291,5.6435,5.6485,5.646,5.6705,5.6782,5.6964,5.7004,5.7056,5.7093,5.705,5.7232,5.7248,5.7264,5.7323,5.7346,5.7081,5.708,5.708,5.708,0,5.5879,5.5993,5.6073,5.6211,5.6291,5.6409,5.6479,5.6555,5.658,5.6636,5.6791,5.6885,5.7016,5.7061,5.7086,5.7248,5.7232,5.7219,5.7175,5.7286,5.7343,5.7366,5.7084,5.7083,5.7083,5.7082,0,0,5.6012,5.6177,5.6206,5.6271,5.6399,5.649,5.6611,5.6738,5.6804,5.6903,5.7009,5.7173,5.7163,5.7238,5.7273,5.7355,5.7483,5.7333,5.7336,5.736,5.7672,5.7683,5.7708,5.7489,5.7494,5.7497,5.7664,0,5.6156,5.6369,5.6419,5.6604,5.6712,5.6736,5.6842,5.6935,5.6992,5.7094,5.7158,5.7275,5.725,5.7297,5.7378,5.745,5.7547,5.7438,5.7592,5.7597,5.7565,5.7737,5.7748,5.7901,5.7686,5.769,5.7692,0,5.6351,5.6455,5.6651,5.6769,5.6816,5.691,5.7033,5.7129,5.7237,5.7273,5.7359,5.7386,5.7518,5.7466,5.765,5.7576,5.7642,5.7687,5.7694,5.7712,5.7652,5.7763,5.795,5.7974,5.7727,5.7725,5.7722,0,5.6433,5.6621,5.6764,5.6818,5.6958,5.7025,5.7087,5.719,5.7265,5.7373,5.7423,5.7546,5.7613,5.7709,5.7771,5.7727,5.7952,5.7904,5.7989,5.7988,5.8036,5.8033,5.824,5.8075,5.8075,5.8074,5.8074,0,5.6589,5.6709,5.6803,5.689,5.7027,5.7084,5.7219,5.7282,5.7374,5.7478,5.7506,5.7603,5.7678,5.7786,5.7836,5.7983,5.8013,5.8049,5.8061,5.8048,5.8044,5.8093,5.8085,5.808,5.8079,5.8078,5.8077,0,5.6703,5.677,5.6928,5.7048,5.7082,5.7177,5.7282,5.7371,5.7429,5.756,5.7594,5.7687,5.7816,5.7887,5.805,5.8083,5.825,5.8255,5.8213,5.8219,5.83,5.8293,5.8548,5.8587,5.8393,5.8395,5.8397,0,5.68,5.6892,5.7023,5.7094,5.7157,5.727,5.7347,5.7409,5.7488,5.7619,5.7693,5.7824,5.7932,5.8139,5.8223,5.8349,5.8359,5.844,5.8378,5.8363,5.8365,5.8359,5.8371,5.8451,5.8453,5.8454,5.8456,0,5.6965,5.6995,5.7103,5.7224,5.7315,5.7413,5.7511,5.7568,5.7647,5.7735,5.7868,5.7952,5.8119,5.825,5.8383,5.8451,5.8469,5.8474,5.8501,5.849,5.8463,5.8482,5.8245,5.8468,5.8467,5.8466,5.8466,5.8465,5.7076,5.7161,5.7268,5.7389,5.7469,5.7561,5.7651,5.7721,5.7831,5.7971,5.8001,5.8143,5.8252,5.8433,5.8504,5.8618,5.8603,5.8641,5.8651,5.866,5.8665,5.8443,5.8642,5.8642,5.8642,5.8642,5.8641,0,5.7246,5.7317,5.7427,5.7563,5.766,5.7665,5.7776,5.7857,5.798,5.8079,5.8186,5.8341,5.8469,5.8564,5.8696,5.8769,5.8781,5.8802,5.8799,5.8815,5.8669,5.8634,5.8791,5.8791,5.8791,5.8791,5.8791,5.879,5.7346,5.7492,5.7535,5.7722,5.7793,5.793,5.7993,5.8079,5.8159,5.833,5.8437,5.8497,5.8597,5.8737,5.8857,5.8882,5.8931,5.8952,5.8978,5.884,5.8825,5.8809,5.8777,5.8961,5.8961,5.9115,5.9116,5.9117]},{"header":{"parameterUnit":"m.s-1","parameterCategory":1,"la1":30.2991,"la2":30.254,"lo1":-89.0895,"lo2":-89.0444,"dy":0.0017,"dx":0.0017,"nx":28,"ny":28,"refTime":"2024-02-03T03:00:00:Z","depth":0,"parameterNumber":3,"parameterNumberName":"V-component_of_WINDS"},"data":[0,0,0,0,0,0,0,0,0,0,0,0,0,0,0,0,0,0,0,0,0,0,0,0,0,0,0,0,0,0,0,0,0,0,0,0,0,0,0,0,0,0,0,0,0,0,0,0,0,0,0,0,0,0,0,0,0,0,-1.7956,-1.7956,0,-1.7981,-1.7981,-1.7981,-1.8,-1.8,-1.8,-1.8,-1.8019,-1.8019,-1.802,0,0,0,0,0,0,0,0,0,0,0,0,0,-1.7923,-1.7923,-1.7956,-1.7956,-1.7957,-1.7981,-1.7981,-1.7981,-1.8,-1.8,-1.8,-1.8,-1.8019,-1.8019,-1.802,0,0,0,0,0,0,0,0,0,0,0,0,0,-1.7941,-1.7923,-1.7956,-1.7969,-1.797,-1.7981,-1.7981,-1.7981,-1.8,-1.8,-1.8,-1.8,-1.8019,-1.8019,-1.802,-1.8017,0,0,-1.8021,-1.8022,0,0,0,0,0,0,0,0,-1.794,-1.7942,-1.7967,-1.7968,-1.797,-1.7988,-1.7976,-1.7993,-1.8,-1.7988,-1.8,-1.8001,-1.8008,-1.8009,-1.8013,-1.8018,-1.8019,-1.8021,-1.8022,-1.8022,-1.8022,0,0,0,0,0,0,0,-1.7939,-1.7941,-1.7966,-1.7967,-1.7969,-1.7973,-1.7976,-1.7979,-1.7996,-1.7989,-1.7991,-1.7994,-1.8009,-1.8013,-1.8014,-1.8019,-1.8021,-1.8022,-1.8022,-1.8022,-1.8026,-1.8026,0,0,0,0,0,0,-1.7936,-1.794,-1.7965,-1.7966,-1.7955,-1.7973,-1.7976,-1.7981,-1.7996,-1.7999,-1.7993,-1.7995,-1.8012,-1.8013,-1.8014,-1.8014,-1.8022,-1.8022,-1.8023,-1.8027,-1.8026,-1.8026,0,0,0,0,0,0,-1.7935,-1.7938,-1.7964,-1.7954,-1.7957,-1.7973,-1.7979,-1.7982,-1.7986,-1.7999,-1.8002,-1.7995,-1.8012,-1.8014,-1.8018,-1.8015,-1.8023,-1.8023,-1.8027,-1.8027,-1.8026,-1.8013,0,0,0,0,0,0,-1.7934,-1.7938,-1.7937,-1.7954,-1.7958,-1.7967,-1.7979,-1.7982,-1.7987,-1.7989,-1.8001,-1.8003,-1.8012,-1.8017,-1.8018,-1.8016,-1.8023,-1.8027,-1.8027,-1.8026,-1.8013,-1.8012,-1.8011,0,0,0,0,0,-1.7933,-1.793,-1.7937,-1.794,-1.7958,-1.7967,-1.7969,-1.7982,-1.7987,-1.7986,-1.7996,-1.8003,-1.8016,-1.8017,-1.8019,-1.8017,-1.8027,-1.8027,-1.8026,-1.8014,-1.8012,-1.8011,0,0,0,0,0,0,-1.791,-1.7932,-1.794,-1.7943,-1.7954,-1.797,-1.797,-1.7979,-1.7986,-1.7987,-1.8,-1.8003,-1.8006,-1.8011,-1.8013,-1.8017,-1.8022,-1.8022,-1.8012,-1.8011,-1.801,-1.8008,-1.8024,0,0,0,0,0,-1.7906,-1.7913,-1.7932,-1.7932,-1.7937,-1.7953,-1.7957,-1.7967,-1.7977,-1.7981,-1.799,-1.7998,-1.8005,-1.8008,-1.8014,-1.8015,-1.8019,-1.8015,-1.8013,-1.8012,-1.8012,-1.8015,-1.8014,-1.8025,-1.8025,-1.8025,0,0,-1.7896,-1.7909,-1.7912,-1.7928,-1.7937,-1.7944,-1.7956,-1.7961,-1.7967,-1.7981,-1.7986,-1.7994,-1.8004,-1.8007,-1.8009,-1.8012,-1.801,-1.8012,-1.8011,-1.8011,-1.8014,-1.8013,-1.8012,-1.8025,-1.8025,-1.8025,0,0,-1.7881,-1.7892,-1.7895,-1.7905,-1.792,-1.7931,-1.7932,-1.7949,-1.7956,-1.7962,-1.7974,-1.7979,-1.7989,-1.7997,-1.8002,-1.7996,-1.8003,-1.7997,-1.799,-1.7993,-1.7992,-1.7992,-1.7991,-1.799,-1.7997,-1.7997,-1.7997,0,-1.7867,-1.7878,-1.7895,-1.7901,-1.7909,-1.7926,-1.7929,-1.7937,-1.7952,-1.7957,-1.7961,-1.7977,-1.7984,-1.7991,-1.799,-1.7993,-1.7995,-1.7995,-1.7992,-1.7991,-1.799,-1.799,-1.7989,-1.7996,-1.7996,-1.7996,-1.7997,0,-1.786,-1.7869,-1.7869,-1.7887,-1.7895,-1.7899,-1.7916,-1.7922,-1.7931,-1.7942,-1.7949,-1.796,-1.7971,-1.7973,-1.798,-1.7981,-1.7983,-1.7989,-1.7995,-1.7989,-1.7988,-1.7988,-1.7995,-1.7996,-1.7996,-1.7996,0,0,-1.7829,-1.786,-1.786,-1.787,-1.7889,-1.7896,-1.7902,-1.7915,-1.792,-1.7931,-1.7936,-1.7947,-1.7954,-1.796,-1.7969,-1.7972,-1.7969,-1.7978,-1.7979,-1.7977,-1.7972,-1.7968,-1.7967,-1.7975,-1.7975,-1.7975,-1.7972,0,-1.7818,-1.7832,-1.7849,-1.7857,-1.7866,-1.7884,-1.789,-1.7902,-1.7913,-1.7922,-1.7933,-1.7941,-1.7949,-1.7954,-1.7957,-1.7968,-1.7968,-1.7969,-1.798,-1.798,-1.7976,-1.7967,-1.7961,-1.7958,-1.7972,-1.7972,-1.7972,0,-1.7806,-1.782,-1.783,-1.7853,-1.7857,-1.7862,-1.7877,-1.7885,-1.79,-1.7908,-1.7918,-1.7929,-1.7937,-1.7943,-1.7954,-1.7955,-1.7961,-1.7967,-1.7967,-1.7968,-1.7975,-1.7968,-1.7957,-1.7957,-1.7971,-1.7971,-1.7971,0,-1.7784,-1.7805,-1.7814,-1.7822,-1.7848,-1.7852,-1.7862,-1.7879,-1.7886,-1.7899,-1.7905,-1.7917,-1.7924,-1.7933,-1.7948,-1.7951,-1.7958,-1.7965,-1.7965,-1.7965,-1.7964,-1.7964,-1.7955,-1.7968,-1.7968,-1.7968,-1.7968,0,-1.777,-1.7775,-1.7805,-1.7811,-1.7818,-1.7838,-1.7844,-1.7857,-1.7872,-1.788,-1.7896,-1.7903,-1.7922,-1.7931,-1.7942,-1.7951,-1.7954,-1.796,-1.7963,-1.7959,-1.7958,-1.7962,-1.7963,-1.7968,-1.7968,-1.7968,-1.7968,0,-1.7746,-1.7766,-1.7777,-1.7803,-1.781,-1.7814,-1.7836,-1.7842,-1.7856,-1.7866,-1.787,-1.789,-1.7903,-1.7919,-1.7935,-1.7943,-1.7951,-1.7955,-1.7946,-1.7948,-1.7947,-1.7947,-1.794,-1.7941,-1.7953,-1.7953,-1.7953,0,-1.7735,-1.774,-1.7768,-1.7776,-1.7788,-1.78,-1.7809,-1.783,-1.7839,-1.7859,-1.7863,-1.7878,-1.789,-1.7909,-1.7925,-1.7939,-1.7943,-1.794,-1.7945,-1.7942,-1.7945,-1.7944,-1.7946,-1.7938,-1.7938,-1.7938,-1.7938,0,-1.7715,-1.7726,-1.774,-1.7759,-1.777,-1.7785,-1.78,-1.7806,-1.783,-1.7839,-1.7854,-1.7864,-1.7883,-1.7898,-1.7914,-1.7924,-1.7935,-1.7937,-1.7938,-1.7933,-1.7928,-1.7932,-1.7943,-1.7936,-1.7936,-1.7936,-1.7937,-1.7937,-1.7698,-1.7705,-1.7726,-1.7742,-1.7757,-1.7772,-1.7781,-1.7797,-1.781,-1.783,-1.7841,-1.7856,-1.7874,-1.7898,-1.7908,-1.7919,-1.7923,-1.7924,-1.7924,-1.7924,-1.7924,-1.7927,-1.7922,-1.7922,-1.7922,-1.7922,-1.7922,0,-1.7679,-1.7696,-1.771,-1.7733,-1.7746,-1.7759,-1.7778,-1.7787,-1.7801,-1.7818,-1.7832,-1.785,-1.7865,-1.7884,-1.79,-1.7906,-1.7912,-1.791,-1.7909,-1.7912,-1.7918,-1.7917,-1.7905,-1.7905,-1.7905,-1.7905,-1.7905,-1.7905,-1.7671,-1.7685,-1.7699,-1.772,-1.7735,-1.7752,-1.7762,-1.7776,-1.7791,-1.7811,-1.7825,-1.7839,-1.7857,-1.7875,-1.789,-1.7895,-1.7901,-1.7897,-1.7904,-1.7909,-1.7911,-1.7912,-1.7911,-1.7898,-1.7898,-1.7897,-1.7897,-1.7897]}]]